This demonstration page uses our WeatherBlox Daily Observations layout. Learn more.

Left ArrowRight Arrow

34.74481, -87.66753

Hourly Observations for March 13, 2021

Temp ( °F °C ) Dew Point ( °F °C ) Humidity (%) Winds ( mph kmh ) Pressure ( in mb ) Visibility ( mi km ) Precip ( " mm )
12:06 am 00:06 Mostly Cloudy 64 17.8 58 14.4 81 81 ENE 3 6 30.25 1024 8 13 0.00 0.00
12:25 am 00:25 Mostly Cloudy 63 17.2 58 14.4 84 84 E 3 6 30.25 1024 8 13 0.00 0.00
12:53 am 00:53 Cloudy 64 17.8 58 14.4 81 81 E 6 9 30.25 1025 8 13 0.00 0.00
1:53 am 01:53 Cloudy 64 17.8 58 14.4 81 81 ENE 6 9 30.24 1024 9 14 0.00 0.00
2:53 am 02:53 Cloudy 64 17.8 58 14.4 81 81 E 3 6 30.23 1024 8 13 0.00 0.00
3:53 am 03:53 Cloudy 63 17.2 58 14.4 84 84 Calm 30.23 1024 7 11 0.00 0.00
4:24 am 04:24 Mostly Cloudy 63 17.2 58 14.4 84 84 ENE 5 7 30.24 1024 7 11 0.00 0.00
4:53 am 04:53 Mostly Cloudy with Haze 63 17.2 57 13.9 81 81 ENE 5 7 30.24 1024 6 10 0.00 0.00
5:53 am 05:53 Cloudy with Haze 62 16.7 57 13.9 84 84 SSE 5 7 30.24 1024 5 8 0.00 0.00
6:05 am 06:05 Cloudy with Haze 62 16.7 57 13.9 84 84 E 3 6 30.25 1025 4 6 0.00 0.00
6:32 am 06:32 Cloudy with Haze 62 16.7 57 13.9 84 84 ENE 3 6 30.25 1025 2 3 0.00 0.00
6:40 am 06:40 Cloudy with Mist and Fog 62 16.7 58 14.4 86 86 E 3 6 30.26 1025 2 3 0.00 0.00
6:51 am 06:51 Cloudy with Mist and Fog 63 17 57 14 83 83 E 3 6 30.26 1025 2 3 0.00 0.00
6:53 am 06:53 Cloudy with Mist and Fog 62 16.7 58 14.4 86 86 E 5 7 30.25 1025 2 3 0.00 0.00
7:18 am 07:18 Cloudy with Mist and Fog 62 16.7 58 14.4 86 86 ENE 5 7 30.27 1025 2 3 0.00 0.00
7:27 am 07:27 Cloudy with Haze 63 17.2 58 14.4 84 84 NNE 3 6 30.27 1025 2 3 0.00 0.00
7:53 am 07:53 Cloudy with Haze 63 17.2 58 14.4 84 84 NE 6 9 30.28 1025 3 4 0.00 0.00
8:22 am 08:22 Cloudy with Haze 63 17.2 58 14.4 84 84 ENE 6 9 30.29 1026 3 5 0.00 0.00
8:46 am 08:46 Cloudy with Haze 64 17.8 58 14.4 81 81 NE 8 13 30.30 1026 5 8 0.00 0.00
8:53 am 08:53 Cloudy with Haze 65 18.3 58 14.4 78 78 ENE 7 11 30.30 1026 5 8 0.00 0.00
9:53 am 09:53 Cloudy with Haze 65 18.3 57 13.9 76 76 NE 9 15 30.31 1026 6 10 0.00 0.00
10:15 am 10:15 Cloudy 66 18.9 57 13.9 73 73 E 5 7 30.30 1026 9 14 0.00 0.00
10:41 am 10:41 Cloudy 67 19.4 58 14.4 73 73 E 6 9 30.29 1026 10 16 0.00 0.00
10:53 am 10:53 Cloudy 68 20 58 14.4 70 70 SE 5 7 30.28 1026 10 16 0.00 0.00
11:53 am 11:53 Cloudy 69 20.6 58 14.4 68 68 ESE 7 11 30.27 1025 10 16 0.00 0.00
12:53 pm 12:53 Cloudy 72 22.2 59 15 64 64 NE 5 7 30.24 1024 10 16 0.00 0.00
1:53 pm 13:53 Partly Cloudy 73 22.8 59 15 62 62 VRB 3 6 30.20 1023 10 16 0.00 0.00
2:53 pm 14:53 Partly Cloudy 75 23.9 59 15 58 58 NE 6 9 30.19 1022 10 16 0.00 0.00
3:53 pm 15:53 Sunny 74 23.3 57 13.9 56 56 ENE 6 9 30.18 1022 10 16 0.00 0.00
4:53 pm 16:53 Sunny 73 22.8 56 13.3 55 55 E 6 9 30.16 1022 10 16 0.00 0.00
5:53 pm 17:53 Sunny 70 21.1 57 13.9 64 64 E 5 7 30.16 1021 10 16 0.00 0.00
6:53 pm 18:53 Clear 68 20 56 13.3 65 65 NE 8 13 30.16 1021 10 16 0.00 0.00
7:53 pm 19:53 Clear 65 18.3 55 12.8 70 70 NE 7 11 30.17 1022 10 16 0.00 0.00
8:53 pm 20:53 Clear 63 17.2 55 12.8 76 76 NE 8 13 30.17 1022 10 16 0.00 0.00
9:53 pm 21:53 Clear 61 16.1 54 12.2 78 78 E 6 9 30.16 1021 10 16 0.00 0.00
10:53 pm 22:53 Partly Cloudy 60 15.6 54 12.2 80 80 ENE 3 6 30.15 1021 10 16 0.00 0.00
11:53 pm 23:53 Cloudy 60 15.6 54 12.2 80 80 ENE 3 6 30.15 1021 10 16 0.00 0.00

Powered by AerisWeather